When you browse on this site, cookies collect data to enhance your experience and personalize the content and advertising you see.
Visit our Privacy Policy to learn more. By continuing to use the site, you agree to this use of cookies and data.
  • In Hungary
  • List of Countries
  • For 7 days
  • Water Temperature
  • Weather Map
  • News
  • Weather Widgets
  • user-avatar
    Login

    Hourly Weather Karagay-Pokrovka

    Today, 14 October, Monday

    Time Temperature Precipitation Wind Pressure Humidity
    00:00 +6°C° 0.6 mm 9 mps 720 mmHg 86%
    01:00 +6°C° 0.6 mm 9 mps 720 mmHg 90%
    02:00 +6°C° 0.9 mm 8 mps 720 mmHg 91%
    03:00 +8°C° 0.9 mm 7 mps 720 mmHg 93%
    04:00 +8°C° 0 mm 6 mps 719 mmHg 94%
    05:00 +7°C° 0.3 mm 6 mps 719 mmHg 93%
    06:00 +7°C° 0.3 mm 5 mps 719 mmHg 93%
    07:00 +7°C° 0.3 mm 5 mps 719 mmHg 92%
    08:00 +7°C° 0 mm 5 mps 719 mmHg 83%
    09:00 +8°C° 0 mm 6 mps 720 mmHg 74%
    10:00 +9°C° 0 mm 6 mps 720 mmHg 65%
    11:00 +9°C° 0 mm 7 mps 720 mmHg 64%
    12:00 +9°C° 0 mm 7 mps 721 mmHg 63%
    13:00 +10°C° 0 mm 8 mps 721 mmHg 63%
    14:00 +9°C° 0.1 mm 8 mps 721 mmHg 63%
    15:00 +9°C° 0.1 mm 7 mps 722 mmHg 64%
    16:00 +9°C° 0.1 mm 7 mps 722 mmHg 65%
    17:00 +8°C° 0 mm 7 mps 723 mmHg 68%
    18:00 +7°C° 0 mm 6 mps 723 mmHg 72%
    19:00 +7°C° 0 mm 6 mps 723 mmHg 75%
    20:00 +5°C° 0 mm 6 mps 724 mmHg 76%
    21:00 +5°C° 0 mm 6 mps 724 mmHg 77%
    22:00 +5°C° 0 mm 6 mps 724 mmHg 79%
    23:00 +5°C° 0 mm 5 mps 724 mmHg 80%

    Tomorrow, 15 October, Tuesday

    Time Temperature Precipitation Wind Pressure Humidity
    00:00 +5°C° 0 mm 5 mps 724 mmHg 82%
    01:00 +5°C° 0 mm 5 mps 724 mmHg 83%
    02:00 +5°C° 0 mm 5 mps 725 mmHg 85%
    03:00 +5°C° 0 mm 5 mps 725 mmHg 87%
    04:00 +5°C° 0 mm 4 mps 725 mmHg 89%
    05:00 +4°C° 0 mm 4 mps 725 mmHg 91%
    06:00 +4°C° 0 mm 4 mps 725 mmHg 93%
    07:00 +4°C° 0 mm 4 mps 725 mmHg 95%
    08:00 +5°C° 0 mm 5 mps 724 mmHg 92%
    09:00 +4°C° 0 mm 6 mps 724 mmHg 89%
    10:00 +5°C° 0 mm 7 mps 724 mmHg 86%
    11:00 +5°C° 1.4 mm 8 mps 723 mmHg 87%
    12:00 +5°C° 1.4 mm 9 mps 722 mmHg 88%
    13:00 +6°C° 1.4 mm 9 mps 721 mmHg 89%
    14:00 +7°C° 1.6 mm 10 mps 721 mmHg 88%
    15:00 +9°C° 1.6 mm 10 mps 720 mmHg 86%
    16:00 +11°C° 1.6 mm 10 mps 719 mmHg 84%
    17:00 +12°C° 0.7 mm 10 mps 719 mmHg 82%
    18:00 +12°C° 0.7 mm 10 mps 719 mmHg 79%
    19:00 +12°C° 0.7 mm 9 mps 718 mmHg 77%
    20:00 +12°C° 0.2 mm 9 mps 718 mmHg 79%
    21:00 +11°C° 0.2 mm 9 mps 718 mmHg 80%
    22:00 +11°C° 0.2 mm 8 mps 718 mmHg 81%
    23:00 +10°C° 0 mm 8 mps 718 mmHg 84%

    Day after tomorrow, 16 October, Wednesday

    Time Temperature Precipitation Wind Pressure Humidity
    00:00 +10°C° 0 mm 8 mps 718 mmHg 86%
    01:00 +9°C° 0 mm 8 mps 719 mmHg 88%
    02:00 +7°C° 0 mm 8 mps 719 mmHg 84%
    03:00 +8°C° 0 mm 7 mps 720 mmHg 81%
    04:00 +6°C° 0 mm 7 mps 720 mmHg 78%
    05:00 +5°C° 0 mm 6 mps 721 mmHg 79%
    06:00 +4°C° 0 mm 6 mps 721 mmHg 80%
    07:00 +3°C° 0 mm 5 mps 722 mmHg 82%
    08:00 +3°C° 0 mm 5 mps 722 mmHg 76%
    09:00 +5°C° 0 mm 5 mps 723 mmHg 71%
    10:00 +4°C° 0 mm 6 mps 724 mmHg 65%
    11:00 +4°C° 0 mm 6 mps 724 mmHg 64%
    12:00 +4°C° 0 mm 7 mps 725 mmHg 62%
    13:00 +4°C° 0 mm 7 mps 725 mmHg 61%
    14:00 +4°C° 0 mm 7 mps 725 mmHg 61%
    15:00 +4°C° 0 mm 7 mps 726 mmHg 62%
    16:00 +3°C° 0 mm 7 mps 726 mmHg 62%
    17:00 +2°C° 0 mm 7 mps 727 mmHg 65%
    18:00 +1°C° 0 mm 6 mps 727 mmHg 68%
    19:00 0°C° 0 mm 5 mps 728 mmHg 71%
    20:00 0°C° 0 mm 5 mps 728 mmHg 74%
    21:00 -1°C° 0 mm 5 mps 729 mmHg 76%
    22:00 -1°C° 0 mm 4 mps 729 mmHg 78%
    23:00 -1°C° 0 mm 4 mps 730 mmHg 79%

    17 October, Thursday

    Time Temperature Precipitation Wind Pressure Humidity
    00:00 -2°C° 0 mm 4 mps 730 mmHg 80%
    01:00 -1°C° 0 mm 3 mps 730 mmHg 81%
    02:00 -1°C° 0 mm 3 mps 730 mmHg 82%
    03:00 -2°C° 0 mm 3 mps 731 mmHg 83%
    04:00 -2°C° 0 mm 2 mps 731 mmHg 84%
    05:00 -2°C° 0 mm 2 mps 732 mmHg 84%
    06:00 -2°C° 0 mm 2 mps 732 mmHg 84%
    07:00 -2°C° 0 mm 3 mps 732 mmHg 84%
    08:00 -1°C° 0 mm 3 mps 732 mmHg 77%
    09:00 0°C° 0 mm 3 mps 733 mmHg 70%
    10:00 +1°C° 0 mm 3 mps 733 mmHg 63%
    11:00 +2°C° 0 mm 3 mps 733 mmHg 60%
    12:00 +3°C° 0 mm 3 mps 733 mmHg 57%
    13:00 +4°C° 0 mm 4 mps 733 mmHg 54%
    14:00 +4°C° 0 mm 4 mps 733 mmHg 56%
    15:00 +3°C° 0 mm 4 mps 732 mmHg 59%
    16:00 +3°C° 0 mm 4 mps 732 mmHg 61%
    17:00 +3°C° 0 mm 3 mps 732 mmHg 64%
    18:00 +2°C° 0 mm 3 mps 732 mmHg 68%
    19:00 +2°C° 0 mm 3 mps 732 mmHg 71%
    20:00 +2°C° 0 mm 3 mps 732 mmHg 70%
    21:00 +2°C° 0 mm 3 mps 731 mmHg 70%
    22:00 +2°C° 0 mm 3 mps 731 mmHg 69%
    23:00 +1°C° 0 mm 4 mps 731 mmHg 68%

    18 October, Friday

    Time Temperature Precipitation Wind Pressure Humidity
    00:00 +1°C° 0 mm 4 mps 730 mmHg 68%
    01:00 +1°C° 0 mm 4 mps 730 mmHg 67%
    02:00 +1°C° 0 mm 5 mps 729 mmHg 65%
    03:00 +1°C° 0 mm 5 mps 729 mmHg 64%
    04:00 +1°C° 0 mm 5 mps 728 mmHg 62%
    05:00 +1°C° 0 mm 5 mps 728 mmHg 61%
    06:00 +1°C° 0 mm 6 mps 727 mmHg 60%
    07:00 +1°C° 0 mm 6 mps 726 mmHg 59%
    08:00 +2°C° 0 mm 7 mps 726 mmHg 57%
    09:00 +2°C° 0 mm 8 mps 726 mmHg 55%
    10:00 +3°C° 0 mm 9 mps 725 mmHg 53%
    11:00 +5°C° 0 mm 9 mps 725 mmHg 52%
    12:00 +6°C° 0 mm 9 mps 724 mmHg 51%
    13:00 +7°C° 0 mm 9 mps 723 mmHg 50%
    14:00 +7°C° 0 mm 8 mps 723 mmHg 52%
    15:00 +7°C° 0 mm 8 mps 722 mmHg 54%
    16:00 +8°C° 0 mm 7 mps 721 mmHg 55%
    17:00 +8°C° 0 mm 7 mps 721 mmHg 57%
    18:00 +6°C° 0 mm 7 mps 720 mmHg 58%
    19:00 +5°C° 0 mm 7 mps 720 mmHg 59%
    20:00 +4°C° 0.7 mm 6 mps 720 mmHg 69%
    21:00 +3°C° 0.7 mm 6 mps 720 mmHg 79%
    22:00 +2°C° 0.7 mm 6 mps 720 mmHg 89%
    23:00 +1°C° 0.1 mm 6 mps 720 mmHg 84%

    19 October, Saturday

    Time Temperature Precipitation Wind Pressure Humidity
    00:00 -2°C° 0.1 mm 7 mps 720 mmHg 79%
    01:00 -3°C° 0.1 mm 7 mps 720 mmHg 74%
    02:00 -3°C° 0 mm 7 mps 721 mmHg 73%
    03:00 -3°C° 0 mm 7 mps 721 mmHg 72%
    04:00 -3°C° 0 mm 7 mps 722 mmHg 71%
    05:00 -4°C° 0 mm 7 mps 722 mmHg 71%
    06:00 -4°C° 0 mm 7 mps 722 mmHg 71%
    07:00 -6°C° 0 mm 8 mps 723 mmHg 72%
    08:00 -5°C° 0 mm 8 mps 723 mmHg 69%
    09:00 -5°C° 0 mm 8 mps 724 mmHg 66%
    10:00 -5°C° 0 mm 8 mps 724 mmHg 64%
    11:00 -4°C° 0 mm 8 mps 724 mmHg 62%
    12:00 -2°C° 0 mm 8 mps 725 mmHg 61%
    13:00 -2°C° 0 mm 8 mps 725 mmHg 59%
    14:00 -2°C° 0 mm 8 mps 726 mmHg 60%
    15:00 -2°C° 0 mm 8 mps 726 mmHg 61%
    16:00 -2°C° 0 mm 7 mps 726 mmHg 61%
    17:00 -3°C° 0 mm 7 mps 727 mmHg 65%
    18:00 -4°C° 0 mm 6 mps 727 mmHg 68%
    19:00 -4°C° 0 mm 6 mps 728 mmHg 71%
    20:00 -5°C° 0 mm 5 mps 728 mmHg 70%
    21:00 -4°C° 0 mm 4 mps 729 mmHg 69%
    22:00 -4°C° 0 mm 4 mps 729 mmHg 68%
    23:00 -4°C° 0 mm 4 mps 730 mmHg 66%
    Show more